Theta_e
309 308 308 308 308 308 308 308 310 309 310 306 303 303 300 300 297 305 309 312 311 303 296 297 295 295 296 299 297 297 297 296 296 296 296 295 297 295 294 294 292 292 291 289 288 291 289 290 289 286 286 286 290 291 292 293 293 291 288 291 290 292 286 283 283 285 285 288 287 289 288 289 288 286 283 284 285 286 285 284 281 278 278 278 276 277 282
307 307 307 307 307 307 306 307 308 309 308 304 304 301 299 299 298 301 309 312 310 300 291 291 293 295 296 297 297 298 297 296 294 295 296 296 295 295 293 294 296 293 292 291 290 293 288 290 290 288 286 288 293 291 294 295 292 293 291 290 293 287 286 286 281 281 283 284 286 287 287 286 284 283 284 283 283 281 281 279 279 278 279 282 277 276 282
306 305 305 305 306 306 306 306 307 306 304 303 303 299 299 298 299 300 303 308 306 296 298 295 293 294 295 295 294 295 295 297 299 297 296 297 296 294 293 296 294 293 294 293 293 293 292 287 290 289 286 289 291 291 290 292 292 293 293 296 295 289 285 285 281 279 277 276 276 276 281 284 283 284 283 283 284 281 281 277 278 278 281 281 277 280 283
305 305 304 305 305 306 306 306 305 304 303 303 301 298 297 294 288 295 296 302 301 300 299 297 295 293 294 293 295 296 294 296 297 299 297 299 296 297 294 293 295 292 292 290 290 291 291 291 286 287 286 288 289 290 290 291 292 292 294 293 294 287 286 287 287 285 283 285 281 283 284 282 282 283 282 283 281 283 283 279 277 278 280 280 282 283 281
305 304 304 303 303 304 304 303 303 302 302 302 298 296 296 296 289 290 287 296 297 296 298 295 296 293 297 290 294 293 295 295 294 299 293 297 297 295 295 293 292 291 291 290 290 291 290 291 289 288 286 287 287 289 288 288 290 293 291 291 288 285 284 286 288 287 288 285 282 283 285 284 282 282 282 281 280 279 280 279 277 280 278 276 284 281 280
305 304 304 303 303 302 302 301 301 301 301 301 299 293 295 289 292 295 296 291 288 290 292 296 295 295 297 292 295 293 293 294 291 295 297 295 298 294 293 294 295 294 293 292 287 289 289 289 288 289 287 288 289 288 288 287 289 289 289 288 289 285 285 287 285 285 283 281 282 283 283 284 282 282 283 282 280 278 278 277 282 280 279 278 282 280 279
305 305 304 303 303 302 302 300 300 301 300 300 295 292 293 293 290 291 295 290 291 293 294 296 295 294 295 292 294 292 293 292 295 292 291 293 292 297 288 291 294 294 294 292 289 289 286 286 290 288 287 287 286 286 287 289 286 287 287 287 284 287 283 282 283 282 280 281 282 282 282 280 281 281 282 282 280 279 281 280 282 282 280 281 281 280 279
305 305 304 303 303 303 302 301 300 300 301 299 293 290 290 288 290 288 290 290 287 288 292 294 294 291 294 289 291 292 292 291 293 292 293 287 291 295 292 293 293 294 291 293 290 291 292 290 287 289 287 286 287 287 288 285 285 286 286 287 286 288 282 284 281 281 279 278 279 280 280 280 281 282 281 280 278 279 280 282 280 280 278 279 278 278 278
305 305 305 304 303 303 302 301 301 300 301 292 291 290 290 290 290 291 287 287 286 287 288 291 291 290 291 290 291 291 292 291 294 291 295 293 290 292 292 294 291 291 292 292 293 295 293 291 292 292 291 288 290 289 286 288 284 284 284 284 284 286 281 279 279 279 277 276 278 278 277 277 276 276 278 276 277 277 279 277 279 278 277 278 276 272 276
305 305 305 304 304 303 303 302 301 300 301 290 289 286 291 289 290 291 289 285 290 286 287 289 290 286 291 291 291 291 291 292 293 289 292 294 295 295 295 295 293 289 290 290 293 295 289 290 284 284 286 287 286 287 286 290 288 284 286 283 284 284 280 277 276 277 275 275 275 275 273 275 275 276 278 277 278 280 280 278 278 280 281 274 272 275 281
306 305 305 304 304 303 303 302 302 300 295 288 286 285 287 287 287 287 287 283 284 285 287 287 289 290 292 293 291 293 292 292 293 288 287 289 289 290 294 293 291 289 289 291 291 288 286 287 287 287 286 286 286 286 287 285 286 287 285 279 277 281 281 278 280 276 271 272 272 273 271 268 274 278 279 280 277 278 276 277 278 278 278 275 279 278 276
306 305 305 304 304 304 303 303 302 301 298 292 290 287 288 289 288 286 285 283 284 285 286 286 289 290 290 291 292 291 291 291 291 294 291 287 288 287 290 289 290 286 289 288 289 288 286 288 289 288 285 284 284 285 285 285 284 286 286 285 279 280 281 277 276 273 270 270 271 271 268 272 278 274 276 276 278 278 277 277 276 276 277 278 276 276 276
306 306 305 305 304 304 304 303 303 301 299 291 291 287 288 289 287 285 284 284 282 283 283 285 285 285 286 288 288 291 291 291 291 290 288 286 286 285 287 287 288 288 288 287 288 288 284 280 281 281 281 281 282 283 282 283 283 284 283 285 283 280 280 277 274 273 271 270 273 268 270 278 276 277 276 277 276 275 275 273 276 276 276 277 276 278 279
306 306 305 305 305 304 304 304 303 302 300 295 290 288 289 288 285 283 283 282 282 284 283 284 284 284 285 286 287 285 285 284 284 287 287 285 287 287 285 286 287 289 288 289 286 285 280 281 278 280 280 278 278 280 279 281 280 281 282 282 282 283 279 278 275 278 271 273 271 274 277 277 279 279 273 275 274 274 273 268 273 278 275 276 276 277 278
306 306 306 305 305 305 305 304 304 303 301 299 292 289 289 288 287 284 283 282 278 282 283 280 282 283 283 283 285 284 284 283 286 283 281 282 281 283 284 284 283 287 287 287 281 281 281 277 273 274 272 273 271 275 275 275 276 277 279 280 281 282 280 279 278 274 277 270 272 269 268 269 274 280 276 278 277 276 276 274 268 273 268 274 276 276 278
306 305 306 306 305 305 305 304 304 304 302 300 294 291 290 290 288 286 282 280 280 276 281 285 282 281 282 282 284 286 285 284 284 282 281 280 279 282 282 281 281 283 282 281 280 280 278 278 272 274 271 272 274 271 271 272 271 275 278 279 280 280 281 279 279 275 270 269 270 270 269 271 279 277 276 275 273 275 273 269 266 272 270 273 276 276 274
305 305 305 305 306 306 305 305 305 304 302 300 293 292 290 292 289 286 283 282 282 278 283 280 282 281 280 280 282 282 284 284 284 281 280 280 280 278 281 283 283 283 282 282 279 276 272 268 268 269 268 272 271 271 270 267 268 268 276 277 278 276 275 277 275 272 274 272 270 270 272 271 272 269 272 274 274 275 273 260 260 266 271 271 274 275 273
304 305 305 305 305 305 305 305 304 304 303 302 296 292 290 292 290 288 283 280 279 279 283 283 282 280 280 281 279 281 280 278 279 280 280 280 278 279 279 281 281 285 285 281 277 275 272 268 273 270 272 275 273 273 267 270 261 264 268 273 271 275 272 276 272 275 275 276 271 268 270 273 271 272 274 274 273 272 263 265 267 269 271 272 274 275 275
303 304 304 304 304 304 305 304 304 303 303 303 298 294 291 293 291 290 284 283 281 276 279 281 283 282 283 283 280 281 281 282 282 279 275 278 277 276 277 277 283 280 281 278 277 274 277 272 270 266 270 269 271 269 271 266 265 270 272 269 270 271 273 271 274 271 272 272 270 270 271 272 270 271 276 276 274 263 266 272 272 273 272 273 275 275 274
303 303 303 303 303 304 303 303 303 303 303 302 299 292 293 294 293 292 287 282 281 279 280 280 281 281 282 282 280 278 279 280 279 279 278 276 276 280 282 277 281 277 274 280 277 274 274 273 274 267 265 268 267 269 259 260 271 268 270 270 270 271 271 268 272 273 271 269 267 266 264 273 276 275 274 274 268 269 274 271 273 273 274 274 273 275 275
302 302 303 303 303 303 302 303 302 302 303 302 300 294 292 294 293 293 292 287 282 277 279 283 283 283 282 281 282 282 280 279 279 278 279 276 281 284 275 278 282 278 277 280 276 276 273 268 266 267 269 272 270 269 264 265 267 270 271 268 268 273 265 264 270 276 265 270 266 267 274 274 278 278 273 273 278 276 274 275 272 273 273 274 274 274 275
303 302 302 302 302 302 302 302 303 303 303 303 301 295 291 293 293 294 292 289 283 279 275 283 283 283 285 286 286 285 284 283 283 282 278 277 278 279 278 281 281 277 274 271 270 267 267 263 263 262 267 264 264 266 262 263 263 265 265 268 265 275 271 270 267 272 269 268 274 275 275 277 279 280 278 279 281 277 274 276 276 274 274 274 275 275 275
303 303 303 303 303 303 302 302 302 303 303 302 299 294 291 292 292 294 291 286 286 288 286 283 284 284 287 287 286 286 285 285 283 281 282 281 276 276 274 277 276 278 274 277 279 275 272 269 268 268 260 264 272 264 264 265 262 263 267 272 273 272 275 273 271 269 273 273 275 274 273 276 278 279 279 279 279 279 276 276 275 275 275 275 275 276 276
301 301 302 303 302 302 302 302 303 303 302 302 300 294 292 293 292 290 289 289 286 282 285 285 282 279 282 283 287 287 285 284 286 283 283 286 279 272 276 278 279 276 272 277 278 274 268 262 266 264 265 268 267 262 268 265 265 265 265 267 271 272 273 271 270 271 270 267 273 273 274 274 277 279 279 277 276 278 277 276 277 278 276 275 276 277 277
302 302 301 302 303 303 302 302 302 302 302 302 300 298 294 292 293 292 288 282 283 282 278 282 284 287 287 287 286 285 286 286 287 283 284 284 284 281 279 280 280 280 279 278 277 274 266 269 268 265 267 270 274 264 268 268 265 271 262 268 269 270 274 272 272 270 271 269 272 273 274 274 275 278 278 278 279 277 275 277 277 277 276 276 277 275 275
301 301 301 302 302 302 302 301 302 302 302 301 299 295 293 292 295 294 291 290 286 284 279 278 282 288 287 285 284 287 285 288 286 284 284 283 283 284 282 280 278 279 278 279 278 277 266 264 258 258 266 268 275 262 262 271 267 271 270 271 275 272 274 264 270 272 273 274 273 272 273 274 274 275 276 278 279 278 276 275 275 275 275 275 274 274 277
300 301 301 301 301 301 301 302 302 302 301 301 299 297 295 295 296 293 290 288 284 280 282 279 283 283 284 285 286 285 285 287 286 285 283 283 282 281 282 280 280 277 278 274 272 271 260 260 266 270 264 263 271 265 269 268 271 266 266 273 274 272 271 271 270 267 265 268 273 274 267 268 275 276 278 278 278 276 276 275 273 273 274 274 274 275 275
301 301 301 301 301 301 300 302 302 301 301 301 299 297 296 295 294 294 294 292 287 279 280 280 282 283 285 280 284 286 288 287 286 285 284 282 281 282 281 280 278 277 275 276 271 270 268 271 271 269 267 266 270 268 273 272 271 266 266 273 275 274 275 273 271 272 269 273 275 277 278 277 278 279 279 279 277 276 275 275 276 276 276 276 275 275 275
299 300 300 300 300 301 300 300 300 301 301 300 295 293 293 296 296 296 294 293 291 284 281 281 280 276 277 281 284 283 285 286 285 285 284 281 281 281 281 280 280 279 278 275 274 270 267 272 275 270 267 274 269 262 269 265 266 268 273 277 276 278 278 277 277 275 274 276 277 277 276 277 278 279 278 276 276 276 276 277 277 277 277 276 275 276 276
300 300 300 300 301 301 301 300 300 301 300 294 289 287 285 286 294 295 296 294 292 287 283 280 277 279 280 279 278 281 283 283 283 283 282 281 280 280 280 280 279 282 278 276 276 272 273 270 275 275 275 278 273 267 268 265 267 272 277 278 279 278 278 278 277 276 277 279 276 276 277 278 279 279 277 276 276 276 276 276 276 276 275 275 274 275 275
299 299 300 300 301 300 300 300 300 301 298 290 288 282 281 279 286 296 297 295 294 289 284 285 279 284 278 279 279 281 283 283 282 282 282 283 283 282 279 280 277 282 275 275 275 275 275 269 274 273 278 279 278 268 268 269 269 271 278 279 279 279 279 278 279 278 278 277 276 274 275 277 277 276 276 276 276 274 275 274 274 275 276 273 274 275 275
300 300 300 300 300 300 300 300 299 299 294 289 287 284 280 282 286 294 297 296 293 287 283 279 279 279 277 280 278 280 283 283 284 283 282 283 281 282 279 282 279 281 282 276 275 274 274 276 273 273 275 281 279 268 274 272 271 273 278 279 280 279 279 277 277 276 276 277 275 274 274 276 276 276 278 280 279 275 274 275 275 274 275 275 275 273 273
298 299 299 299 299 299 300 300 300 298 292 293 295 294 294 296 296 296 297 294 290 285 286 282 276 279 275 274 274 273 280 280 278 281 279 283 280 280 275 281 280 279 287 281 277 277 279 279 277 275 276 278 274 276 275 274 275 279 280 280 280 279 276 276 277 277 278 278 278 276 276 278 279 278 278 279 279 278 273 273 274 272 269 269 271 272 271
296 297 298 298 298 298 298 299 300 298 296 290 285 285 291 295 295 296 293 289 286 285 285 280 277 276 274 272 266 272 283 280 280 282 277 283 279 280 275 279 279 279 280 279 280 278 275 278 276 276 278 274 278 274 272 276 279 280 281 281 281 279 277 276 276 277 278 278 278 279 281 281 281 276 274 276 277 277 273 273 270 271 271 271 272 273 273
297 296 296 298 298 298 298 297 292 288 285 285 285 288 294 296 296 296 293 288 282 280 280 279 280 275 274 268 267 270 280 281 278 282 279 281 285 279 280 277 280 277 278 284 278 280 279 279 280 275 272 279 276 272 275 277 279 280 280 280 281 280 277 277 278 279 280 278 276 277 278 278 277 276 277 276 275 274 271 271 272 273 273 273 273 272 270
297 296 296 297 297 296 291 290 287 286 284 284 285 293 297 296 296 293 289 286 284 280 278 277 279 274 276 272 268 269 283 278 282 282 281 281 278 281 279 279 275 279 283 280 275 280 277 282 278 272 280 274 272 276 277 279 279 280 280 280 281 280 280 280 280 281 280 274 275 276 275 275 275 276 277 277 276 274 273 273 270 267 271 273 273 272 269
297 297 297 295 290 286 285 285 289 286 285 289 293 296 295 292 288 289 287 286 286 286 279 277 274 273 274 270 269 270 280 273 283 279 282 279 277 282 280 278 275 280 277 276 277 276 279 283 278 274 276 273 276 281 281 281 280 280 280 280 281 281 281 281 281 280 279 272 271 272 273 273 274 275 275 276 276 275 270 271 273 271 270 271 272 272 271
297 295 288 284 284 281 281 284 284 287 296 295 294 288 284 285 280 283 283 281 283 284 279 280 275 274 273 274 270 280 279 274 281 277 278 282 278 275 280 277 277 280 269 274 276 282 278 276 275 274 275 280 281 281 282 282 282 281 281 281 281 281 281 281 280 279 276 276 274 273 268 266 270 272 273 274 274 274 274 275 275 274 274 274 274 274 271
292 286 285 284 281 278 279 280 290 295 290 287 283 278 278 280 278 275 275 280 279 276 281 279 276 278 274 272 271 282 278 276 277 278 273 282 277 272 277 271 278 277 271 272 273 282 272 274 274 275 273 277 277 279 281 281 281 281 281 281 281 281 281 280 280 279 278 278 279 279 277 275 273 273 273 273 274 275 275 274 274 272 272 272 272 269 265
285 283 281 279 275 278 284 289 296 291 288 281 280 278 273 278 275 270 278 272 273 275 279 274 280 277 278 276 274 273 281 276 273 273 276 275 282 272 274 269 273 274 268 271 271 278 271 269 274 273 272 277 278 281 281 281 280 281 280 279 279 280 281 281 281 281 279 279 279 279 277 276 276 277 276 274 273 273 273 272 272 272 270 269 265 264 265
285 282 280 276 277 281 283 286 285 283 280 277 276 276 274 270 271 269 272 271 272 271 275 274 278 275 278 277 276 273 279 277 271 274 275 271 275 274 269 268 276 268 268 269 272 266 265 265 269 270 272 277 278 280 280 279 278 278 279 280 280 281 280 280 279 274 272 274 274 275 276 274 274 275 276 276 274 274 274 272 270 267 262 261 261 259 256
285 282 280 283 282 284 285 282 277 276 276 277 273 269 272 270 270 264 267 267 270 272 268 275 274 276 275 279 276 279 272 271 270 274 272 270 277 268 264 264 267 267 266 270 266 259 263 260 263 264 273 277 278 277 273 275 276 276 277 278 279 279 278 276 275 272 271 275 276 275 274 268 267 267 260 259 263 265 263 264 260 255 255 254 254 254 255
291 288 285 278 277 277 278 276 277 275 270 271 269 266 269 266 269 270 266 267 262 265 267 267 266 277 273 275 272 272 274 278 275 274 272 269 275 271 267 267 267 262 266 264 262 265 262 263 262 268 273 275 276 276 275 276 277 277 277 275 272 271 272 274 274 274 267 266 269 264 258 256 251 249 250 253 254 252 250 252 253 253 253 253 253 253 253
286 283 279 276 276 275 276 269 276 270 269 269 269 265 266 264 266 265 261 264 262 264 269 273 272 275 271 276 276 275 275 277 280 271 270 273 269 267 270 266 269 271 271 265 266 263 266 266 269 271 272 272 273 273 274 275 275 272 272 268 262 264 266 266 266 266 260 254 252 251 251 251 251 251 248 249 252 254 249 250 251 253 252 252 252 252 252
280 276 275 273 270 275 272 266 274 269 267 267 271 266 267 266 269 268 269 267 266 267 269 271 273 272 272 269 268 272 278 272 280 274 271 272 267 270 266 265 269 269 268 266 267 263 262 264 269 269 270 272 273 273 272 269 268 271 270 265 262 261 263 265 266 264 260 256 253 252 252 251 252 250 249 249 249 250 252 251 252 253 252 252 252 252 252
277 275 274 269 268 272 269 267 267 264 267 269 266 267 270 272 270 270 269 264 265 267 272 273 272 272 270 269 273 273 274 272 271 272 274 271 268 267 270 268 267 265 266 265 264 265 268 271 273 273 274 272 270 265 260 262 260 263 266 269 269 263 260 261 259 257 255 253 252 252 251 251 251 252 251 250 249 250 251 251 251 252 252 253 252 251 251
277 276 272 272 269 271 270 265 264 265 265 264 266 270 272 271 267 268 267 266 270 270 271 270 273 273 273 268 268 267 266 270 271 272 271 267 268 270 272 268 265 266 265 264 265 266 268 271 274 269 257 253 254 256 256 257 255 257 260 260 257 255 254 254 253 253 252 253 253 252 252 251 250 250 250 251 250 250 249 250 249 250 252 250 250 250 249
272 276 274 267 267 270 267 268 262 259 258 260 259 260 263 263 269 267 266 265 270 273 273 272 269 269 268 268 268 267 263 267 271 271 270 269 268 262 265 264 263 266 265 264 267 269 270 269 261 255 254 253 251 252 254 254 254 253 253 253 253 252 252 252 251 251 251 252 251 251 250 249 249 250 250 249 249 249 248 248 248 249 249 249 248 248 248
276 274 271 269 269 268 268 265 266 268 263 257 256 261 265 269 267 266 265 263 270 271 272 271 267 270 266 270 268 270 267 271 267 269 269 266 264 263 264 260 262 260 264 265 267 266 266 260 254 252 252 252 253 251 251 251 251 250 251 251 250 250 250 250 250 250 249 250 250 249 249 250 250 249 250 250 250 249 249 248 248 247 248 248 248 247 247
271 269 268 266 266 265 262 259 263 265 259 260 262 262 261 265 265 265 265 267 267 270 272 275 274 271 268 267 264 268 266 269 269 270 265 264 265 265 263 257 259 261 259 260 261 260 254 251 252 253 253 252 254 252 250 250 251 250 249 249 250 250 249 250 249 249 249 250 250 250 250 250 251 250 250 250 250 249 248 246 245 245 245 244 246 246 246
273 270 268 267 268 268 268 267 268 263 260 264 260 263 262 266 265 265 263 266 268 268 267 266 269 266 266 265 265 263 265 270 266 266 266 264 264 262 262 261 260 259 259 257 256 255 254 254 253 253 253 254 254 252 251 250 251 251 250 250 250 249 249 248 248 249 248 249 249 250 250 249 249 249 249 250 250 249 248 246 244 242 242 242 243 243 244
269 267 267 266 264 265 266 266 264 263 263 263 264 260 262 263 260 261 262 267 270 269 267 264 265 265 265 264 267 267 267 264 264 266 263 266 266 262 258 261 263 261 258 257 255 253 252 252 252 251 251 250 251 249 250 249 247 247 247 248 248 249 249 249 249 249 249 249 248 248 247 247 248 249 249 250 250 250 249 246 245 244 243 243 243 243 243
Wind_Speed
15 14 14 14 14 14 14 15 18 15 16 8 5 2 3 5 3 3 8 11 16 11 8 4 3 7 3 4 1 2 0 3 3 4 1 2 2 1 2 4 5 4 2 2 3 5 2 7 7 3 3 2 3 3 4 4 6 6 0 3 2 6 2 1 2 1 3 2 2 1 2 1 1 1 2 3 6 6 8 6 3 4 0 2 1 6 3
14 14 13 13 13 13 13 14 14 15 9 3 5 4 2 2 2 2 3 11 10 11 9 11 11 5 1 2 3 2 2 4 3 4 4 6 3 4 3 1 4 2 2 2 5 5 2 2 4 2 2 2 0 4 3 3 3 3 6 5 6 3 3 6 1 2 1 3 5 4 3 2 1 2 2 2 2 5 3 6 1 1 6 6 4 14 5
13 12 11 10 11 11 12 12 13 8 6 3 3 5 3 3 1 1 4 8 10 12 6 10 10 13 8 5 9 4 0 4 6 8 6 3 3 3 3 3 4 2 1 3 1 4 7 1 3 2 2 3 1 5 6 6 2 2 1 5 4 2 3 6 7 12 12 8 6 5 7 9 3 2 1 2 6 5 3 4 3 7 2 6 4 11 1
13 12 11 10 11 11 11 11 9 7 5 3 3 2 3 2 3 1 1 5 7 4 2 1 7 10 10 7 6 5 5 0 1 6 4 7 2 2 3 1 2 2 3 2 3 5 2 5 2 4 3 1 1 1 4 3 1 3 4 5 4 1 1 4 7 8 9 7 1 2 3 3 6 6 8 7 4 5 4 4 3 10 2 6 9 9 2
12 12 12 11 10 10 10 9 8 7 6 5 3 2 1 1 4 3 4 1 6 6 2 1 2 8 9 6 4 10 12 3 1 6 4 4 6 2 2 3 6 4 4 5 4 4 4 1 1 4 3 1 1 2 3 4 3 5 4 1 4 3 4 9 13 13 13 3 4 4 6 6 5 7 8 6 6 7 10 10 8 4 1 12 8 3 3
12 12 12 11 10 10 10 9 8 8 4 4 2 2 1 2 1 3 1 2 6 9 9 7 4 2 9 6 4 9 12 9 7 2 2 1 5 5 0 2 5 10 12 6 4 5 5 5 6 2 1 1 0 1 1 2 1 0 2 0 4 5 8 6 6 10 4 3 4 4 3 3 3 7 8 8 7 6 10 4 8 8 10 14 3 5 5
12 12 12 11 10 9 9 8 8 8 6 4 2 2 0 1 1 1 2 2 2 4 2 6 6 8 7 2 6 9 13 15 10 4 3 3 2 9 6 10 13 9 7 8 5 6 5 7 6 6 6 6 3 1 1 2 2 2 1 2 1 3 5 4 4 5 4 4 5 3 6 2 3 5 7 7 6 8 5 9 12 10 8 6 6 4 10
14 13 13 12 10 11 10 9 9 9 8 4 4 3 2 1 1 2 3 2 0 3 1 5 7 8 5 3 6 5 6 9 5 1 6 3 3 3 10 8 4 7 6 9 9 11 12 5 6 4 6 3 5 6 6 3 1 1 4 3 2 4 4 7 2 3 3 1 1 1 2 4 7 10 9 5 3 5 12 11 3 1 5 9 10 10 14
16 16 15 14 13 12 11 11 11 11 7 4 2 1 2 2 2 0 3 1 2 1 0 2 5 5 5 8 6 2 2 6 6 2 3 8 6 5 11 9 4 5 8 10 13 12 9 8 10 9 13 13 10 8 5 9 6 4 2 2 2 3 4 3 3 5 3 1 3 2 2 1 5 10 11 4 5 9 10 8 5 7 11 9 5 6 11
17 18 17 16 15 13 12 12 12 11 5 5 2 2 1 3 1 2 2 1 1 4 1 0 2 8 7 6 3 5 10 4 4 2 3 4 4 6 8 9 7 4 8 13 17 12 3 4 1 3 1 4 3 1 4 13 12 8 8 1 5 4 5 5 3 6 4 1 2 4 3 2 9 17 15 11 13 13 6 2 5 13 9 5 8 13 10
19 19 19 18 17 16 14 13 13 9 5 4 3 2 3 3 3 3 4 2 3 3 4 4 9 4 2 5 7 6 6 6 9 10 2 2 2 2 5 8 8 6 11 7 0 7 9 9 6 6 8 8 6 3 3 7 1 6 11 3 0 4 8 6 4 5 2 2 2 3 3 7 13 1 7 14 13 14 15 13 12 6 7 8 8 8 2
19 19 20 19 19 18 17 15 13 11 5 3 4 3 3 3 5 4 3 6 6 4 6 8 11 5 5 6 10 9 10 9 10 10 10 2 1 2 3 3 4 6 1 6 11 11 7 2 6 8 9 8 8 8 6 4 2 2 3 8 5 5 2 4 1 5 3 0 1 2 10 15 1 2 2 3 6 7 12 8 6 7 9 9 5 6 6
21 20 20 20 19 19 19 18 16 13 7 4 3 4 2 2 5 4 4 4 7 6 7 7 1 2 1 1 3 6 5 3 2 3 2 6 1 1 1 4 8 3 9 11 11 8 6 4 6 4 3 3 5 6 7 5 3 3 3 2 8 7 7 4 2 4 4 3 6 6 8 1 3 3 3 2 3 2 2 4 7 11 12 10 10 12 12
24 23 21 20 20 20 20 20 19 18 12 7 5 4 4 3 4 3 3 4 6 4 2 5 3 4 3 3 3 1 3 3 3 2 4 2 3 5 1 0 1 5 9 8 6 7 4 2 2 2 1 4 3 1 2 4 5 5 4 4 2 10 4 3 3 3 5 4 8 13 4 11 10 10 4 6 6 6 6 7 8 11 6 8 8 11 12
21 24 24 22 21 22 23 22 20 18 15 10 6 4 4 2 4 4 1 2 2 1 4 9 3 8 3 2 3 3 2 2 5 1 3 3 3 1 1 1 2 4 2 6 2 3 4 3 2 4 2 3 4 5 2 2 1 5 4 3 2 1 8 4 5 4 6 5 6 3 2 13 12 8 1 0 3 6 5 4 7 5 2 7 10 10 12
21 21 22 23 23 23 20 20 18 19 17 13 6 4 5 4 3 4 4 4 3 5 6 8 2 2 3 4 4 7 5 4 3 3 2 2 1 1 1 0 1 0 3 4 2 5 3 5 5 6 6 6 2 4 3 3 2 1 6 3 2 4 3 1 7 3 4 2 7 8 10 11 4 4 4 1 0 6 4 1 7 6 6 9 10 8 4
16 19 20 21 21 20 20 18 15 17 19 16 7 6 4 6 5 5 4 1 4 6 4 6 1 2 1 2 1 1 3 6 6 5 3 2 2 0 0 1 1 3 0 4 1 4 3 3 1 1 2 1 4 5 2 2 2 2 3 7 5 2 2 2 3 3 6 5 7 10 4 6 3 3 2 2 3 5 5 2 8 3 5 5 7 8 7
17 17 17 20 22 22 21 19 19 19 20 19 10 6 4 4 5 6 3 4 4 4 3 3 2 1 6 4 2 1 4 4 4 3 3 1 4 2 3 2 2 2 2 4 2 4 3 4 5 4 4 3 2 2 5 5 5 5 4 5 4 3 1 3 11 10 11 11 6 3 6 5 3 5 5 3 3 5 4 10 8 3 5 6 7 8 9
19 19 18 18 18 18 18 19 20 19 19 20 8 4 2 5 5 4 4 2 3 5 3 0 1 2 1 3 0 2 2 2 5 7 3 2 3 4 4 1 2 3 2 6 2 3 6 4 2 2 4 2 1 6 1 3 6 2 7 5 3 3 3 5 2 7 11 8 9 9 6 6 6 4 8 7 5 3 10 6 3 9 6 7 8 9 6
20 20 19 19 18 19 21 21 20 20 20 20 13 7 4 8 8 10 9 6 3 4 3 2 3 7 3 3 4 1 1 2 1 5 6 6 2 7 3 2 4 5 2 3 4 2 3 5 4 1 1 5 4 5 3 3 3 10 4 5 6 10 8 7 9 3 2 2 7 3 7 6 13 11 3 2 4 8 4 2 1 5 8 9 7 6 6
21 21 21 20 20 21 21 21 21 21 21 22 15 7 5 4 8 6 4 6 4 3 6 3 1 5 2 2 4 2 3 4 4 4 5 3 8 8 7 7 7 4 6 5 8 4 4 3 2 3 3 4 5 4 5 3 2 7 6 5 4 4 5 3 5 6 7 8 8 11 7 4 14 15 10 6 10 6 6 6 4 3 5 6 5 7 7
20 20 21 21 21 21 21 20 20 20 21 23 18 7 7 5 7 7 4 4 4 6 4 1 2 3 6 6 6 6 6 5 6 4 7 3 2 2 2 3 5 4 3 4 5 2 2 2 2 3 4 2 2 5 3 5 4 2 3 3 1 8 9 8 8 5 9 10 9 2 4 10 9 9 6 9 12 5 7 5 4 5 5 4 6 7 7
21 20 21 21 20 19 20 21 21 20 21 22 16 8 8 7 5 5 7 5 1 1 0 1 1 2 2 2 4 6 5 2 3 3 4 7 1 1 3 4 3 1 1 0 7 5 5 7 6 5 2 2 10 3 1 3 3 2 6 6 4 4 1 3 3 4 3 3 4 1 1 6 10 6 5 7 8 6 4 5 4 4 5 9 7 7 7
23 22 21 20 21 21 21 21 21 20 23 24 16 9 7 7 8 7 3 3 4 3 3 3 2 5 7 8 9 4 2 1 4 5 2 5 8 2 2 2 1 2 0 4 3 6 5 3 4 2 3 5 7 3 8 8 6 4 2 2 2 3 1 2 4 2 2 7 2 7 6 4 7 12 9 4 4 6 5 5 7 6 5 7 5 6 7
19 21 22 22 22 21 21 21 22 21 23 24 16 8 5 4 6 10 9 7 5 6 5 3 10 11 6 4 0 1 5 5 3 3 2 1 5 8 8 5 5 7 6 5 2 8 2 4 1 1 5 7 8 5 3 4 5 5 3 5 1 5 4 3 6 3 7 7 4 3 1 1 5 9 8 9 12 8 4 7 6 6 3 5 8 6 5
22 22 22 21 21 21 22 22 21 21 23 22 15 9 9 9 9 9 8 2 2 2 5 8 4 1 5 2 4 5 4 7 6 4 4 4 3 4 6 4 2 3 5 3 2 6 5 3 2 1 5 6 3 4 4 5 4 2 6 10 7 4 4 4 5 7 6 1 2 2 1 2 5 6 7 10 9 6 5 7 6 6 6 7 4 4 7
21 21 22 21 22 22 22 22 22 22 24 22 14 9 9 7 10 13 12 10 6 2 6 9 2 0 2 9 3 1 2 6 5 6 4 2 3 3 5 6 7 3 5 3 3 5 3 2 3 5 3 5 4 3 3 1 4 4 3 6 2 4 7 2 3 5 4 7 8 6 2 5 8 10 13 14 11 6 6 5 5 6 8 7 6 7 7
21 20 20 20 19 20 21 20 21 24 24 20 12 9 7 8 10 12 10 12 12 5 3 3 3 3 1 2 4 5 7 7 9 8 7 4 4 6 7 8 6 5 3 6 1 1 2 5 7 2 1 0 2 2 1 1 3 2 3 8 7 10 13 8 8 11 7 6 8 10 12 7 6 9 10 9 6 6 7 9 10 10 9 8 7 8 8
22 22 23 23 22 22 21 21 22 22 23 16 6 7 7 8 7 9 10 6 6 2 4 2 2 2 4 6 2 4 5 5 7 9 8 6 6 6 7 9 8 6 4 3 3 2 3 4 3 5 3 6 6 3 3 2 4 8 11 12 8 13 6 12 13 5 2 6 10 8 5 8 10 9 6 5 6 9 11 12 12 12 11 8 9 10 11
22 23 22 22 21 20 20 21 22 22 19 6 5 2 3 2 7 11 11 10 7 3 4 4 3 5 1 2 1 3 4 4 5 5 7 6 6 7 8 8 5 5 4 5 6 4 4 2 2 2 1 1 4 3 3 3 4 9 12 15 14 11 10 9 4 8 12 8 2 4 7 8 10 8 5 6 7 9 9 12 12 10 9 7 9 10 9
22 22 22 22 21 21 22 23 23 21 15 6 5 3 4 5 7 10 14 11 9 6 2 2 5 1 2 3 2 7 8 6 7 9 11 11 11 10 4 4 1 5 3 2 3 5 3 2 3 2 1 6 4 4 5 5 5 5 16 16 13 14 13 13 9 7 6 5 2 4 4 9 7 2 7 10 8 7 7 6 6 8 9 6 9 11 11
21 21 21 22 22 23 22 23 25 17 10 10 9 6 3 2 2 13 19 12 10 4 4 3 2 2 2 1 1 2 4 6 4 3 2 4 5 4 3 8 6 6 5 5 2 1 4 4 3 4 5 5 6 1 3 5 9 14 18 14 11 12 9 4 1 3 5 6 4 1 4 11 7 10 14 13 8 6 10 10 9 7 10 10 9 8 9
12 19 20 19 17 18 21 22 20 15 8 7 11 7 2 4 5 13 13 11 7 2 2 2 4 2 1 5 1 2 3 4 2 5 5 3 6 4 3 2 2 1 5 3 3 5 2 4 4 4 6 4 4 3 6 10 14 20 20 16 13 8 4 3 5 7 9 9 11 11 13 15 14 12 11 13 13 8 6 8 9 6 5 6 8 9 7
14 14 15 17 16 16 13 16 20 19 12 7 1 1 1 8 9 14 10 5 3 1 2 3 3 3 3 2 4 3 5 7 5 7 3 1 3 5 4 4 4 5 4 9 6 3 3 1 7 4 5 3 3 3 8 13 21 21 18 16 14 7 2 4 5 8 10 10 8 12 15 16 12 2 4 8 12 9 5 6 4 5 8 9 11 11 10
20 19 16 15 16 16 14 12 7 4 4 3 3 1 6 13 11 15 12 5 5 2 2 3 2 4 2 1 3 4 2 5 5 7 7 3 4 6 3 4 5 7 5 5 1 5 5 6 4 5 6 5 4 6 10 17 19 17 17 16 12 8 5 6 11 13 13 5 6 10 12 10 8 9 11 10 10 8 5 7 8 9 10 11 11 11 7
21 22 21 19 16 11 7 8 3 4 2 3 4 11 18 14 14 8 5 3 2 2 3 2 3 4 5 7 6 2 3 1 1 4 3 2 1 1 3 3 3 5 1 3 6 7 8 4 5 5 6 7 11 12 15 15 18 19 17 15 14 12 14 17 17 16 9 4 10 10 11 9 11 15 14 11 10 9 9 8 7 6 9 11 12 10 6
20 21 22 16 9 5 3 2 1 2 3 5 9 15 14 12 5 4 2 1 0 0 2 1 2 4 5 4 1 3 3 3 3 3 5 4 4 2 4 4 7 3 3 3 4 8 6 3 5 6 7 11 14 14 16 17 16 16 14 13 14 13 13 14 16 15 12 7 8 7 9 10 11 10 10 11 12 9 6 9 12 11 12 15 15 11 11
22 16 10 7 5 4 3 4 3 6 18 23 16 7 4 2 3 1 2 2 1 3 2 2 3 1 2 4 1 3 4 2 2 4 2 4 3 2 2 2 4 4 5 4 6 4 4 3 6 8 11 11 13 15 17 14 13 9 9 12 13 13 13 12 12 10 8 11 10 11 6 4 7 9 10 12 12 11 12 14 13 12 12 13 13 11 8
15 7 3 2 3 3 4 4 7 20 12 4 5 3 1 0 2 2 2 1 1 2 3 5 7 5 5 3 2 1 4 4 4 3 3 4 4 4 2 3 3 3 3 2 5 8 3 5 4 6 9 9 14 20 18 13 13 11 13 14 12 11 10 12 12 14 15 16 17 15 10 12 13 14 11 12 12 11 11 10 10 9 10 11 11 8 5
6 6 4 4 1 2 1 9 23 11 4 3 1 4 2 1 3 3 1 3 1 1 2 6 5 5 8 10 8 5 2 5 6 4 4 2 0 4 2 2 3 4 5 6 4 5 6 6 5 5 10 12 16 18 15 14 15 14 11 11 11 13 14 15 15 12 10 11 10 12 9 9 11 12 12 11 12 13 11 10 10 10 9 9 4 4 6
5 4 5 4 4 1 0 4 4 4 3 2 2 1 2 1 1 0 2 2 2 3 1 2 2 2 4 3 4 6 2 4 0 2 3 4 2 5 2 2 1 3 2 3 1 4 2 2 5 10 14 14 15 16 14 11 10 9 9 11 13 14 15 15 12 7 5 7 8 10 10 9 9 11 12 10 10 11 12 9 6 6 5 4 5 3 3
3 4 4 7 4 5 4 4 2 3 2 0 3 3 2 1 2 2 1 5 5 2 3 3 4 7 7 10 8 6 2 1 2 1 2 1 2 5 3 0 1 3 4 2 3 2 3 1 2 3 8 12 12 9 6 7 9 8 11 13 14 14 12 8 8 7 6 9 10 10 9 5 7 7 4 3 4 3 3 1 2 2 4 3 5 6 4
20 14 7 5 3 2 1 2 1 2 4 2 3 0 1 4 3 4 2 1 2 2 5 2 1 1 2 3 2 0 4 1 2 1 2 3 0 3 2 1 2 1 5 1 2 1 3 4 4 9 9 10 9 9 9 11 10 9 10 6 4 4 6 8 9 10 5 5 8 5 1 1 1 2 1 1 3 7 5 4 4 6 6 6 6 6 5
6 4 5 1 2 2 2 4 2 4 1 1 5 5 2 3 2 2 1 5 3 2 5 8 6 8 4 0 5 2 2 0 3 1 0 1 3 2 2 3 3 2 4 2 1 4 5 4 9 9 9 8 9 9 10 10 9 6 6 2 1 1 2 4 2 3 2 1 3 3 4 5 6 4 4 4 1 8 6 5 4 7 7 8 8 6 5
5 2 2 2 1 2 3 2 2 3 4 3 4 3 5 9 10 9 12 4 4 6 3 5 7 5 5 2 3 1 2 2 1 5 4 4 1 2 3 4 1 1 3 4 1 2 1 5 8 8 7 8 10 8 4 4 3 4 5 2 3 3 3 5 7 5 3 3 3 3 4 3 5 6 6 6 4 3 6 8 5 8 7 8 8 7 4
4 4 3 4 3 2 3 1 2 1 1 3 5 8 10 11 9 10 3 3 4 3 8 8 6 6 6 2 6 5 3 2 2 3 2 1 4 5 3 0 2 2 2 2 4 9 10 11 9 11 8 5 5 6 8 6 4 0 3 5 7 6 5 4 2 2 2 4 3 5 5 4 5 6 6 6 6 6 5 5 4 5 7 8 8 6 4
2 2 2 1 1 2 1 3 4 5 4 3 6 8 8 6 3 3 4 3 6 6 5 2 4 4 7 3 1 2 0 1 3 2 4 2 4 1 2 3 3 4 5 6 6 6 7 9 9 1 4 6 8 7 6 6 5 5 5 5 4 2 2 3 3 3 3 4 6 6 5 6 6 6 7 8 8 7 5 5 5 3 5 7 7 7 5
2 1 2 2 3 3 6 5 3 2 1 1 1 1 1 2 6 2 2 2 6 7 8 6 2 0 2 2 3 4 2 1 2 3 2 2 3 3 0 1 2 2 3 4 9 7 8 3 1 3 3 3 4 6 6 7 7 7 5 4 3 3 3 4 4 4 4 5 6 7 6 5 6 6 8 9 8 7 7 5 5 6 8 7 6 5 5
2 2 3 2 0 0 0 1 6 6 1 2 1 0 4 6 5 3 3 2 6 6 5 6 4 5 1 0 2 2 1 3 3 3 3 1 2 3 3 3 3 3 5 7 7 4 2 0 2 3 4 4 4 4 4 4 5 4 5 4 2 2 3 5 5 4 4 5 6 7 7 6 7 8 8 7 9 6 5 5 6 5 4 5 5 5 4
3 2 3 3 2 2 0 1 3 4 1 0 1 2 1 2 3 1 0 3 3 6 3 4 1 3 2 3 1 1 2 1 2 0 3 2 3 2 2 1 3 4 3 2 3 2 0 1 2 3 3 3 3 4 4 4 4 4 3 3 3 3 3 5 6 5 4 5 6 7 7 7 7 6 8 8 7 6 6 6 5 5 4 4 5 4 4
1 2 0 2 3 4 6 7 10 8 5 7 6 6 4 6 4 4 0 3 3 4 4 3 2 2 1 1 1 2 3 2 3 3 4 3 2 3 4 4 5 5 4 0 1 1 2 2 3 3 5 5 4 4 4 3 4 4 3 4 3 4 5 4 5 6 6 5 6 7 8 6 6 7 7 8 8 8 7 5 4 3 3 3 3 4 3
2 2 1 0 2 4 1 1 4 1 1 1 1 1 0 2 1 0 3 2 7 6 2 1 4 2 2 3 3 1 1 4 2 1 1 4 2 4 3 5 5 3 2 1 2 3 4 4 4 4 4 4 5 5 4 3 4 4 5 5 4 5 4 5 4 5 5 5 5 6 6 5 6 6 6 7 7 7 7 4 2 2 2 2 1 1 1
Wind_Direction
108 112 115 119 123 126 134 139 140 134 141 137 164 102 154 198 191 356 156 171 160 158 195 179 194 220 230 85 12 106 83 165 173 157 178 182 141 108 197 194 167 246 150 208 161 166 190 167 202 179 178 237 203 246 178 171 97 93 181 70 227 88 111 159 286 336 329 348 312 342 37 49 5 352 60 118 193 203 225 241 174 175 47 254 331 241 257
108 110 115 117 123 128 133 143 149 150 152 133 121 126 158 119 119 120 181 188 188 166 190 202 211 217 354 198 199 33 186 163 160 194 185 172 165 180 183 342 222 204 158 135 179 193 190 221 143 266 182 202 323 350 297 222 190 130 213 144 221 123 254 136 209 331 107 357 346 336 341 44 205 213 230 168 114 80 107 95 75 156 221 214 157 250 221
110 104 105 107 116 123 129 140 150 133 81 66 142 150 152 117 37 14 188 202 208 196 198 193 196 207 200 162 195 189 193 228 204 176 195 149 166 119 227 190 150 177 173 173 91 207 193 76 251 130 174 186 12 345 35 344 281 25 353 102 128 109 179 133 189 217 229 224 185 209 224 219 211 229 248 245 171 149 117 220 177 221 208 166 217 252 304
116 113 110 111 119 122 128 134 129 98 72 38 86 167 99 168 157 151 350 212 228 276 59 2 195 200 199 209 213 186 217 272 285 175 220 179 162 146 124 13 125 143 134 146 181 209 272 176 211 150 216 236 355 281 337 93 214 298 87 121 110 152 124 185 211 220 235 248 183 241 100 76 185 222 187 211 188 189 155 93 144 214 223 213 229 241 99
126 121 121 120 122 126 128 119 105 100 83 61 105 26 117 65 127 159 181 75 259 243 179 206 190 201 178 215 160 213 217 174 292 179 202 188 162 133 157 148 162 227 156 185 204 202 211 226 122 198 164 227 189 27 122 62 66 150 118 174 80 104 198 209 221 231 244 240 196 207 171 192 218 201 232 208 170 171 167 183 213 159 138 250 231 114 166
138 134 130 128 126 123 120 118 112 109 106 80 47 97 30 131 255 118 231 157 205 204 233 191 175 307 170 208 160 214 211 198 211 113 225 97 171 163 305 183 207 174 181 159 181 195 212 170 209 116 264 117 193 82 20 128 322 79 167 10 150 158 226 214 184 238 200 175 187 174 167 208 192 209 220 213 175 155 184 210 218 175 203 250 247 158 201
151 151 146 142 143 139 134 126 119 111 101 78 83 114 286 112 2 207 339 159 329 221 23 164 189 204 184 204 191 206 203 208 200 157 148 146 238 199 203 207 206 195 174 158 195 175 184 229 207 183 198 179 129 183 346 242 104 121 142 149 174 120 241 202 176 215 158 223 178 174 180 208 270 244 237 226 169 196 177 217 228 209 232 262 272 274 248
165 165 163 160 159 156 151 144 134 131 118 91 64 30 134 241 131 259 14 68 102 326 68 158 182 218 182 200 217 204 198 203 169 194 152 173 219 174 220 218 200 199 190 194 209 207 208 188 186 202 150 202 188 213 183 145 21 130 185 161 275 156 269 120 158 185 229 219 2 64 165 187 235 251 255 262 83 163 207 232 233 59 283 264 261 264 270
175 175 174 174 172 169 163 154 150 147 140 65 95 74 75 95 51 334 111 198 259 69 10 154 184 219 200 218 225 122 185 216 183 215 209 182 181 182 210 217 199 194 200 214 229 228 218 209 211 185 166 204 197 171 250 149 160 169 150 179 248 175 242 67 126 181 267 137 172 141 76 5 243 262 253 145 181 238 235 229 199 209 229 232 251 267 259
181 181 181 180 181 176 170 165 163 167 110 107 113 131 182 58 332 82 79 266 203 172 171 194 125 233 225 215 191 190 216 206 137 249 271 217 195 171 194 214 198 209 202 219 226 229 174 215 127 113 347 27 35 139 174 169 167 174 183 111 162 173 144 153 174 194 206 169 116 139 84 353 284 249 235 190 215 236 252 234 191 215 208 187 213 236 239
187 186 186 185 182 183 177 176 175 171 117 136 117 176 132 143 130 61 36 165 314 173 175 219 211 235 222 165 236 220 231 188 179 190 249 104 260 197 184 193 194 217 216 231 334 107 116 111 111 71 72 59 60 34 88 47 46 166 157 111 174 147 161 179 187 186 173 71 156 119 102 236 242 23 147 177 202 218 231 239 227 215 163 207 204 239 267
189 190 191 191 188 186 185 182 183 181 158 164 117 141 191 134 97 86 122 204 236 134 193 214 208 231 220 199 207 215 219 206 198 195 215 164 211 85 162 184 147 236 211 119 105 100 112 91 59 59 50 46 52 38 49 115 31 51 153 149 156 161 142 128 109 118 173 166 79 170 213 237 54 206 296 200 200 211 222 241 251 234 222 235 254 270 242
197 193 193 195 193 191 190 187 183 186 154 112 97 143 221 142 126 140 150 183 237 165 195 232 254 289 296 330 279 238 231 222 162 145 102 134 150 171 197 165 191 192 130 132 127 114 79 89 53 72 36 22 24 41 31 25 30 17 28 110 143 167 153 146 84 123 54 97 197 229 239 92 240 252 185 93 70 141 89 313 262 240 219 206 217 232 241
202 197 196 197 197 196 196 194 188 186 161 134 118 157 144 130 118 114 142 147 239 201 211 295 280 265 240 217 211 308 60 65 33 77 176 7 175 181 251 187 275 148 153 122 88 103 73 42 105 109 283 28 353 332 279 26 18 10 2 6 5 160 85 142 183 182 182 203 191 240 3 313 286 273 170 178 192 171 165 239 256 247 189 180 200 226 244
220 208 200 199 201 200 198 200 194 185 171 153 125 110 132 129 127 132 226 93 213 339 177 221 213 216 178 230 181 168 145 173 157 214 32 13 69 308 221 278 309 175 217 131 94 48 145 119 83 147 308 117 205 223 52 258 21 36 19 352 16 135 164 218 179 256 144 164 244 289 271 251 253 247 164 254 155 150 184 168 284 284 221 191 179 214 234
221 216 208 204 203 203 202 202 201 190 176 161 140 145 170 166 118 94 123 141 127 255 236 216 113 121 190 223 188 196 194 163 173 94 90 38 317 11 337 317 316 51 42 72 85 113 157 156 199 169 201 180 227 83 258 111 337 29 40 20 75 26 69 199 210 219 65 167 220 227 236 249 224 221 191 216 177 129 111 79 279 266 188 205 180 206 212
229 223 217 210 206 205 203 205 205 198 178 166 162 163 185 176 142 140 115 67 198 223 77 64 48 121 100 305 353 282 196 191 160 166 175 194 165 245 343 65 314 74 110 89 156 96 99 62 57 99 339 178 117 206 68 80 142 323 17 36 57 54 356 105 207 194 214 196 221 236 225 250 272 216 245 187 133 117 77 351 275 259 208 178 163 187 194
218 216 215 208 207 204 205 204 205 208 191 172 162 169 179 186 158 116 84 136 171 264 241 165 103 216 199 194 188 249 75 77 54 35 82 115 99 172 179 138 146 307 176 120 201 110 141 133 167 186 204 241 157 84 207 160 161 202 166 140 138 170 305 219 208 216 227 223 260 356 280 277 210 170 173 159 156 84 105 226 236 229 186 198 180 192 197
225 217 208 211 212 206 201 205 205 202 205 191 156 145 194 166 166 129 114 123 179 237 274 27 197 209 226 79 146 181 193 190 163 118 166 102 245 208 148 212 167 181 347 153 74 145 176 232 35 123 156 262 121 201 184 124 198 61 121 89 55 342 86 330 323 227 227 227 241 241 267 235 171 282 154 167 99 202 215 236 194 147 192 203 195 199 203
225 222 221 213 212 209 209 210 207 203 204 195 164 182 163 164 186 172 168 172 194 220 244 187 171 202 222 169 209 188 262 73 310 129 177 168 237 119 101 120 301 91 341 141 185 213 136 201 179 126 46 189 225 159 38 257 102 161 178 214 156 185 148 198 201 210 60 140 234 304 269 267 132 127 59 291 149 232 189 158 222 182 177 176 213 208 215
223 222 220 218 215 217 216 211 210 207 203 193 170 160 180 177 178 192 171 143 136 195 279 250 178 217 186 191 196 174 152 196 182 144 215 150 190 149 166 202 174 140 188 173 176 211 158 208 210 181 217 147 232 79 191 169 312 262 139 185 183 204 106 229 236 181 159 190 193 210 221 118 154 140 171 212 212 189 163 135 198 205 160 179 185 223 208
221 220 219 218 217 215 215 208 204 202 197 190 172 163 190 179 168 181 166 129 149 186 204 235 180 209 225 223 225 185 191 224 215 157 135 134 295 173 188 89 143 148 198 115 57 26 353 156 50 97 199 231 2 202 180 118 227 246 0 118 297 218 193 175 188 207 162 194 213 193 148 160 186 168 189 199 216 180 180 164 181 158 223 179 166 219 214
216 214 215 214 210 210 208 206 201 199 199 194 176 183 178 150 166 165 139 185 293 288 282 344 299 287 273 250 225 205 224 175 138 129 154 124 167 4 145 142 204 186 108 109 168 159 163 136 197 157 49 204 180 181 297 180 215 202 170 245 202 297 161 168 84 255 268 277 205 128 55 163 194 235 205 201 226 236 180 194 203 227 182 165 181 212 207
220 217 214 212 213 209 208 207 201 202 203 200 183 168 176 164 155 126 128 175 188 240 283 239 275 249 224 249 248 200 120 159 192 199 216 143 151 239 336 265 185 62 287 220 171 135 188 117 202 125 171 227 99 135 180 248 224 189 86 300 270 245 153 140 193 267 152 260 148 158 198 191 197 210 234 247 240 230 203 203 212 217 182 193 213 207 210
226 225 220 215 212 210 208 210 205 206 211 205 186 183 138 138 161 159 158 169 181 189 232 225 224 223 209 215 7 155 211 194 140 154 167 155 158 164 201 202 168 162 208 173 118 76 53 116 197 111 191 246 136 227 270 141 283 159 172 256 327 306 180 134 223 209 193 238 227 217 43 203 217 210 212 238 244 231 183 205 214 220 220 194 212 201 232
215 222 225 218 219 217 213 211 209 209 216 210 182 176 180 178 171 160 166 136 73 142 212 251 257 91 148 141 200 213 189 171 178 168 180 189 166 177 146 99 55 35 98 102 116 143 131 76 99 145 159 273 117 144 224 204 177 230 188 215 203 183 123 220 184 202 242 255 263 118 22 334 270 246 241 234 231 212 198 214 221 227 240 247 243 183 217
216 215 216 217 215 215 216 213 211 213 216 210 184 178 183 170 166 171 178 169 152 290 224 238 188 351 178 201 217 91 112 161 179 177 186 130 124 91 118 139 129 96 110 59 14 115 62 105 141 218 169 232 131 180 148 81 153 155 219 252 132 98 232 194 109 225 224 183 214 140 168 245 242 230 228 229 228 209 221 204 214 229 234 239 244 253 233
213 212 219 218 216 218 217 212 212 212 214 203 187 189 181 175 186 188 183 172 183 187 173 154 161 219 83 340 257 189 196 170 175 179 187 190 144 144 143 158 138 118 139 124 115 131 151 174 234 207 89 261 98 280 150 337 59 12 250 238 178 193 218 147 200 218 230 216 208 190 208 230 224 223 227 222 206 187 213 230 231 236 229 226 224 245 261
223 214 208 207 208 210 213 215 215 212 207 198 165 177 194 201 195 196 190 202 192 107 76 109 14 41 170 239 92 179 236 171 176 180 190 178 166 166 164 165 169 160 123 96 124 122 157 218 131 146 185 211 100 260 114 183 188 221 226 228 195 228 194 188 218 221 267 207 215 196 174 216 240 242 226 200 194 189 213 229 232 232 231 221 214 221 229
218 218 214 210 206 204 208 213 210 210 204 142 96 90 160 275 206 194 190 181 169 127 180 164 189 239 326 45 257 212 166 165 175 171 179 177 183 186 181 169 184 165 138 163 164 191 210 143 238 249 255 184 161 199 155 191 201 240 240 240 232 237 234 232 171 185 230 223 176 165 202 234 244 248 240 227 201 183 203 223 224 226 233 215 213 230 228
211 214 214 209 207 206 204 209 211 200 149 147 136 108 175 227 208 189 179 175 173 174 214 222 225 102 24 258 156 195 180 159 177 186 191 194 198 193 178 129 162 161 159 184 160 216 143 221 180 249 162 198 146 138 177 168 233 254 244 236 233 240 236 234 219 220 242 276 102 150 190 233 245 307 289 256 236 191 211 239 236 215 224 217 222 224 233
214 213 214 214 211 205 205 207 208 186 154 167 184 193 192 210 244 165 177 172 139 143 160 168 232 182 223 255 225 269 166 179 155 149 193 165 217 171 166 182 197 180 165 176 204 89 228 196 148 200 180 191 123 149 157 190 229 244 251 246 237 242 247 267 236 210 214 214 130 85 263 256 221 206 245 252 249 197 194 222 222 211 215 220 231 230 231
199 208 205 207 210 211 208 203 194 173 175 112 86 88 48 49 150 163 164 137 140 180 154 192 180 206 161 238 48 326 155 79 124 164 227 183 200 135 201 180 133 102 227 144 216 208 218 190 165 206 227 116 124 191 212 220 233 241 247 254 255 252 243 198 195 206 211 211 177 203 232 243 245 228 230 253 261 242 195 211 228 216 221 237 248 248 248
171 186 191 183 184 192 202 199 180 148 122 114 151 192 154 89 115 130 117 112 101 135 129 163 175 179 221 327 59 269 142 159 181 169 208 166 156 129 192 132 200 179 246 202 219 139 316 161 199 210 93 172 166 146 226 231 236 243 249 253 254 251 151 208 209 222 226 220 198 209 228 239 253 255 191 233 247 253 215 222 209 206 225 224 235 233 231
175 165 173 176 177 178 185 178 144 88 134 103 65 21 146 138 141 147 143 151 135 199 164 261 161 170 192 357 199 267 186 120 175 177 186 194 127 159 178 124 199 193 232 101 16 195 199 214 146 148 210 145 168 219 227 234 238 242 245 250 253 250 250 263 252 240 243 206 172 221 233 246 254 257 245 237 238 244 214 227 215 213 233 240 235 238 223
174 166 170 172 163 134 90 77 113 134 90 156 153 153 154 144 148 145 111 70 85 155 135 229 134 185 188 213 219 264 108 37 161 102 178 114 18 133 113 146 221 212 79 166 199 185 213 143 112 220 163 162 216 213 228 228 233 236 237 240 242 229 232 235 248 257 252 157 195 212 219 222 223 235 241 241 237 234 219 228 235 208 227 244 247 238 222
177 173 160 135 105 83 107 129 123 143 178 138 131 136 112 80 35 60 60 103 268 137 148 148 90 242 183 207 65 272 112 169 160 138 180 146 170 141 142 189 200 159 116 198 190 206 213 130 206 215 201 212 227 227 231 235 231 236 239 236 239 234 235 241 244 249 262 235 225 224 217 217 227 235 239 240 238 230 206 222 226 211 220 233 242 239 226
166 142 121 134 116 117 149 183 175 168 124 115 109 78 342 1 117 121 109 104 227 102 283 118 227 158 52 112 247 232 98 270 65 150 166 167 113 248 164 162 211 167 213 198 217 139 107 156 204 215 234 233 247 246 241 241 243 232 229 232 231 229 228 232 238 238 240 258 263 251 242 227 238 237 225 239 240 233 222 224 226 220 223 232 237 237 238
132 120 107 105 116 161 168 213 156 133 106 52 63 74 33 110 102 51 237 159 110 177 223 156 220 150 134 157 264 317 158 176 144 186 166 220 129 259 135 160 243 120 246 148 254 135 195 194 200 210 241 232 242 246 244 240 243 232 225 231 230 230 231 237 232 223 220 225 235 242 219 211 221 234 225 231 242 241 236 232 232 226 221 229 237 237 220
131 134 139 109 145 221 343 145 132 112 102 91 338 101 130 181 141 224 132 86 251 275 166 224 203 173 182 194 159 224 182 130 162 191 174 297 195 166 234 88 262 132 212 198 221 132 167 193 190 197 239 231 240 244 243 234 235 235 225 229 232 234 234 235 240 235 226 239 242 250 244 215 216 223 228 223 226 239 244 234 230 228 219 227 232 207 215
148 110 101 140 177 131 241 121 47 52 84 87 78 21 107 14 192 195 94 208 178 236 185 185 109 149 199 152 140 197 257 89 261 119 127 190 240 79 60 192 247 80 256 200 247 91 122 138 189 198 223 227 231 239 240 242 238 238 223 222 230 235 237 241 248 241 207 231 244 247 245 232 221 228 232 232 224 227 235 240 236 229 209 197 189 188 85
120 112 132 104 116 122 102 35 68 94 54 59 123 192 159 177 55 25 157 152 208 196 286 173 214 179 197 178 194 155 251 166 130 121 118 250 243 134 216 206 346 148 212 198 78 42 75 123 236 264 241 239 241 246 246 237 234 226 229 224 227 234 241 246 246 247 209 220 236 240 247 240 230 241 269 283 259 253 293 261 139 92 122 93 89 101 107
105 107 91 94 60 42 145 102 250 124 137 160 114 192 158 99 192 153 235 249 300 120 250 52 231 97 323 64 31 167 177 169 134 208 110 198 40 57 119 216 144 241 222 24 78 135 152 210 225 238 237 244 243 240 230 229 236 232 237 245 243 234 222 229 231 243 233 216 239 260 305 89 74 48 15 140 121 78 46 52 117 126 116 110 101 98 105
82 69 73 27 81 284 109 176 161 65 138 145 145 175 154 136 240 97 139 235 208 218 211 154 198 136 193 190 144 133 52 321 148 72 16 293 88 171 168 215 207 237 63 21 135 176 209 218 216 231 232 236 244 243 242 240 239 254 277 285 97 134 200 226 229 211 222 58 66 80 83 90 103 61 39 31 100 141 112 76 79 110 112 109 102 99 103
105 54 61 60 84 222 87 280 89 129 182 186 164 181 163 184 199 184 201 215 114 213 158 112 136 144 153 234 41 304 145 204 172 136 216 127 85 218 141 228 190 77 144 213 194 288 334 260 247 242 245 244 239 244 259 256 229 221 234 256 243 219 188 206 222 214 193 129 130 103 95 103 88 71 50 51 38 65 122 131 141 118 115 112 113 109 98
121 163 124 116 185 224 150 163 92 164 274 151 193 191 188 208 188 200 215 85 127 134 140 170 144 134 151 229 145 193 124 134 111 211 155 118 137 217 200 58 72 122 210 160 198 219 223 234 238 237 241 271 316 340 0 342 331 359 144 231 244 210 222 213 185 121 114 102 91 89 95 86 98 98 81 56 57 64 69 85 89 112 120 111 112 114 100
68 42 114 118 112 217 95 156 199 202 169 201 212 188 199 188 177 156 175 157 150 172 108 87 127 176 156 197 93 334 97 173 165 222 90 137 195 235 58 127 209 184 190 219 213 229 237 237 239 318 25 330 326 332 340 337 350 353 326 332 15 51 55 75 72 89 96 97 97 95 92 94 95 102 107 87 64 54 57 62 59 61 93 111 112 102 92
121 180 90 134 187 158 171 217 145 90 16 164 268 269 233 131 118 222 254 160 135 128 135 125 109 40 19 301 78 182 189 249 159 256 149 195 52 34 221 80 222 223 195 201 226 220 233 242 347 321 311 335 315 322 338 350 351 355 354 13 37 54 63 87 89 91 106 116 110 105 104 103 106 102 96 102 94 65 58 67 76 89 99 100 101 101 107
88 123 158 184 117 119 324 69 113 153 242 322 297 115 134 135 202 197 168 134 132 164 159 128 177 107 193 126 134 169 243 216 142 218 83 55 149 203 173 207 177 235 249 193 228 227 227 264 282 300 305 326 344 339 325 341 342 353 6 17 36 70 86 92 101 106 98 102 113 117 115 115 111 108 108 102 99 82 59 64 74 74 84 103 110 110 100
89 13 28 86 82 332 218 22 88 191 282 308 111 173 266 146 145 199 206 99 153 109 104 84 80 94 188 117 167 162 231 197 180 117 83 206 199 218 86 249 239 192 249 238 219 238 278 305 330 330 346 343 346 5 346 345 1 11 17 29 35 55 82 113 111 101 101 111 118 119 121 118 114 117 120 118 116 116 89 66 65 76 71 86 108 105 114
360 97 201 330 151 193 142 171 180 197 199 212 196 206 165 177 167 160 263 123 109 85 66 138 171 112 116 50 128 152 244 128 77 195 165 196 165 129 194 203 236 211 225 200 80 55 31 11 7 335 339 347 356 359 9 354 7 20 21 47 60 71 64 63 82 94 96 101 115 116 110 106 110 110 108 111 113 106 90 65 49 70 81 68 83 111 108
71 105 191 304 40 45 53 92 48 59 145 35 88 300 92 109 340 295 309 124 120 118 182 181 91 130 105 191 212 185 22 46 222 106 52 260 139 147 220 198 232 224 305 1 38 29 27 5 9 352 342 335 340 344 348 21 40 38 39 34 42 65 77 80 79 84 92 83 72 89 92 91 97 102 108 108 108 102 99 97 65 59 72 72 52 65 99